<?xml version="1.0" encoding="UTF-8" standalone="no" ?>
<gpx xmlns="http://www.topografix.com/GPX/1/1" creator="MapSource 6.11.6" version="1.1" xmlns:xsi="http://www.w3.org/2001/XMLSchema-instance" xsi:schemaLocation="http://www.topografix.com/GPX/1/1 http://www.topografix.com/GPX/1/1/gpx.xsd">

  <metadata>
    <link href="http://www.garmin.com">
      <text>Garmin International</text>
    </link>
    <time>2010-01-30T12:42:02Z</time>
    <bounds maxlat="50.633359" maxlon="6.645484" minlat="50.570145" minlon="6.479251"/>
  </metadata>

  <trk>
    <name>Kroenungsweg-4 Heimbach-Kommern</name>
    <extensions>
      <gpxx:TrackExtension xmlns:gpxx="http://www.garmin.com/xmlschemas/GpxExtensions/v3" xmlns:xsi="http://www.w3.org/2001/XMLSchema-instance" xsi:schemaLocation="http://www.garmin.com/xmlschemas/GpxExtensions/v3 http://www.garmin.com/xmlschemas/GpxExtensions/v3/GpxExtensionsv3.xsd">
        <gpxx:DisplayColor>White</gpxx:DisplayColor>
      </gpxx:TrackExtension>
    </extensions>
    <trkseg>
      <trkpt lat="50.610961" lon="6.645484">
        <ele>0.000000</ele>
        <time>2009-12-08T15:35:58Z</time>
      </trkpt>
      <trkpt lat="50.610928" lon="6.645307">
        <ele>0.000000</ele>
        <time>2009-12-08T15:35:58Z</time>
      </trkpt>
      <trkpt lat="50.610883" lon="6.644969">
        <ele>0.000000</ele>
        <time>2009-12-08T15:35:58Z</time>
      </trkpt>
      <trkpt lat="50.610733" lon="6.644658">
        <ele>0.000000</ele>
        <time>2009-12-08T15:35:58Z</time>
      </trkpt>
      <trkpt lat="50.610625" lon="6.644470">
        <ele>0.000000</ele>
        <time>2009-12-08T15:35:58Z</time>
      </trkpt>
      <trkpt lat="50.610291" lon="6.644180">
        <ele>0.000000</ele>
        <time>2009-12-08T15:35:58Z</time>
      </trkpt>
      <trkpt lat="50.610032" lon="6.643971">
        <ele>0.000000</ele>
        <time>2009-12-08T15:35:58Z</time>
      </trkpt>
      <trkpt lat="50.609719" lon="6.643558">
        <ele>0.000000</ele>
        <time>2009-12-08T15:35:58Z</time>
      </trkpt>
      <trkpt lat="50.609440" lon="6.643161">
        <ele>0.000000</ele>
        <time>2009-12-08T15:35:58Z</time>
      </trkpt>
      <trkpt lat="50.609297" lon="6.642812">
        <ele>0.000000</ele>
        <time>2009-12-08T15:35:58Z</time>
      </trkpt>
      <trkpt lat="50.609123" lon="6.642292">
        <ele>0.000000</ele>
        <time>2009-12-08T15:35:58Z</time>
      </trkpt>
      <trkpt lat="50.608905" lon="6.641788">
        <ele>0.000000</ele>
        <time>2009-12-08T15:35:58Z</time>
      </trkpt>
      <trkpt lat="50.608357" lon="6.641064">
        <ele>0.000000</ele>
        <time>2009-12-08T15:35:58Z</time>
      </trkpt>
      <trkpt lat="50.608282" lon="6.641069">
        <ele>0.000000</ele>
        <time>2009-12-08T15:35:58Z</time>
      </trkpt>
      <trkpt lat="50.608184" lon="6.641021">
        <ele>0.000000</ele>
        <time>2009-12-08T15:35:58Z</time>
      </trkpt>
      <trkpt lat="50.608051" lon="6.640806">
        <ele>0.000000</ele>
        <time>2009-12-08T15:35:58Z</time>
      </trkpt>
      <trkpt lat="50.607816" lon="6.640356">
        <ele>0.000000</ele>
        <time>2009-12-08T15:35:58Z</time>
      </trkpt>
      <trkpt lat="50.607489" lon="6.639728">
        <ele>0.000000</ele>
        <time>2009-12-08T15:35:58Z</time>
      </trkpt>
      <trkpt lat="50.607186" lon="6.639417">
        <ele>0.000000</ele>
        <time>2009-12-08T15:35:58Z</time>
      </trkpt>
      <trkpt lat="50.606924" lon="6.639588">
        <ele>0.000000</ele>
        <time>2009-12-08T15:35:58Z</time>
      </trkpt>
      <trkpt lat="50.606846" lon="6.639873">
        <ele>0.000000</ele>
        <time>2009-12-08T15:35:58Z</time>
      </trkpt>
      <trkpt lat="50.606454" lon="6.639680">
        <ele>0.000000</ele>
        <time>2009-12-08T15:35:58Z</time>
      </trkpt>
      <trkpt lat="50.605909" lon="6.639213">
        <ele>0.000000</ele>
        <time>2009-12-08T15:35:58Z</time>
      </trkpt>
      <trkpt lat="50.605766" lon="6.639159">
        <ele>0.000000</ele>
        <time>2009-12-08T15:35:58Z</time>
      </trkpt>
      <trkpt lat="50.605378" lon="6.639009">
        <ele>0.000000</ele>
        <time>2009-12-08T15:35:58Z</time>
      </trkpt>
      <trkpt lat="50.605154" lon="6.638773">
        <ele>0.000000</ele>
        <time>2009-12-08T15:35:58Z</time>
      </trkpt>
      <trkpt lat="50.604960" lon="6.638435">
        <ele>0.000000</ele>
        <time>2009-12-08T15:35:58Z</time>
      </trkpt>
      <trkpt lat="50.604864" lon="6.638145">
        <ele>0.000000</ele>
        <time>2009-12-08T15:35:58Z</time>
      </trkpt>
      <trkpt lat="50.604779" lon="6.637850">
        <ele>0.000000</ele>
        <time>2009-12-08T15:35:58Z</time>
      </trkpt>
      <trkpt lat="50.604541" lon="6.637829">
        <ele>0.000000</ele>
        <time>2009-12-08T15:35:58Z</time>
      </trkpt>
      <trkpt lat="50.604296" lon="6.637786">
        <ele>0.000000</ele>
        <time>2009-12-08T15:35:58Z</time>
      </trkpt>
      <trkpt lat="50.603792" lon="6.637593">
        <ele>0.000000</ele>
        <time>2009-12-08T15:35:58Z</time>
      </trkpt>
      <trkpt lat="50.603417" lon="6.637110">
        <ele>0.000000</ele>
        <time>2009-12-08T15:35:58Z</time>
      </trkpt>
      <trkpt lat="50.603247" lon="6.636783">
        <ele>0.000000</ele>
        <time>2009-12-08T15:35:58Z</time>
      </trkpt>
      <trkpt lat="50.603090" lon="6.636456">
        <ele>0.000000</ele>
        <time>2009-12-08T15:35:58Z</time>
      </trkpt>
      <trkpt lat="50.602825" lon="6.635962">
        <ele>0.000000</ele>
        <time>2009-12-08T15:35:58Z</time>
      </trkpt>
      <trkpt lat="50.602644" lon="6.635506">
        <ele>0.000000</ele>
        <time>2009-12-08T15:35:58Z</time>
      </trkpt>
      <trkpt lat="50.602433" lon="6.635141">
        <ele>0.000000</ele>
        <time>2009-12-08T15:35:58Z</time>
      </trkpt>
      <trkpt lat="50.602249" lon="6.634943">
        <ele>0.000000</ele>
        <time>2009-12-08T15:35:58Z</time>
      </trkpt>
      <trkpt lat="50.601950" lon="6.634675">
        <ele>0.000000</ele>
        <time>2009-12-08T15:35:58Z</time>
      </trkpt>
      <trkpt lat="50.601708" lon="6.634621">
        <ele>0.000000</ele>
        <time>2009-12-08T15:35:58Z</time>
      </trkpt>
      <trkpt lat="50.601422" lon="6.634514">
        <ele>0.000000</ele>
        <time>2009-12-08T15:35:58Z</time>
      </trkpt>
      <trkpt lat="50.601102" lon="6.634326">
        <ele>0.000000</ele>
        <time>2009-12-08T15:35:58Z</time>
      </trkpt>
      <trkpt lat="50.600731" lon="6.633961">
        <ele>0.000000</ele>
        <time>2009-12-08T15:35:58Z</time>
      </trkpt>
      <trkpt lat="50.600492" lon="6.633725">
        <ele>0.000000</ele>
        <time>2009-12-08T15:35:58Z</time>
      </trkpt>
      <trkpt lat="50.600230" lon="6.633511">
        <ele>0.000000</ele>
        <time>2009-12-08T15:35:58Z</time>
      </trkpt>
      <trkpt lat="50.599873" lon="6.633301">
        <ele>0.000000</ele>
        <time>2009-12-08T15:35:58Z</time>
      </trkpt>
      <trkpt lat="50.599474" lon="6.633135">
        <ele>0.000000</ele>
        <time>2009-12-08T15:35:58Z</time>
      </trkpt>
      <trkpt lat="50.599250" lon="6.633006">
        <ele>0.000000</ele>
        <time>2009-12-08T15:35:58Z</time>
      </trkpt>
      <trkpt lat="50.599032" lon="6.632872">
        <ele>0.000000</ele>
        <time>2009-12-08T15:35:58Z</time>
      </trkpt>
      <trkpt lat="50.598991" lon="6.632786">
        <ele>0.000000</ele>
        <time>2009-12-08T15:35:58Z</time>
      </trkpt>
      <trkpt lat="50.599001" lon="6.632625">
        <ele>0.000000</ele>
        <time>2009-12-08T15:35:58Z</time>
      </trkpt>
      <trkpt lat="50.598759" lon="6.632459">
        <ele>0.000000</ele>
        <time>2009-12-08T15:35:58Z</time>
      </trkpt>
      <trkpt lat="50.598555" lon="6.632298">
        <ele>0.000000</ele>
        <time>2009-12-08T15:35:58Z</time>
      </trkpt>
      <trkpt lat="50.598490" lon="6.632137">
        <ele>0.000000</ele>
        <time>2009-12-08T15:35:58Z</time>
      </trkpt>
      <trkpt lat="50.598467" lon="6.631864">
        <ele>0.000000</ele>
        <time>2009-12-08T15:35:58Z</time>
      </trkpt>
      <trkpt lat="50.598477" lon="6.631676">
        <ele>0.000000</ele>
        <time>2009-12-08T15:35:58Z</time>
      </trkpt>
      <trkpt lat="50.598596" lon="6.631526">
        <ele>0.000000</ele>
        <time>2009-12-08T15:35:58Z</time>
      </trkpt>
      <trkpt lat="50.598613" lon="6.631504">
        <ele>0.000000</ele>
        <time>2009-12-08T15:35:58Z</time>
      </trkpt>
      <trkpt lat="50.598603" lon="6.631418">
        <ele>0.000000</ele>
        <time>2009-12-08T15:35:58Z</time>
      </trkpt>
      <trkpt lat="50.598511" lon="6.631354">
        <ele>0.000000</ele>
        <time>2009-12-08T15:35:58Z</time>
      </trkpt>
      <trkpt lat="50.598470" lon="6.631316">
        <ele>0.000000</ele>
        <time>2009-12-08T15:35:58Z</time>
      </trkpt>
      <trkpt lat="50.598449" lon="6.631279">
        <ele>0.000000</ele>
        <time>2009-12-08T15:35:58Z</time>
      </trkpt>
      <trkpt lat="50.598405" lon="6.631140">
        <ele>0.000000</ele>
        <time>2009-12-08T15:35:58Z</time>
      </trkpt>
      <trkpt lat="50.598409" lon="6.630871">
        <ele>0.000000</ele>
        <time>2009-12-08T15:35:58Z</time>
      </trkpt>
      <trkpt lat="50.598416" lon="6.630818">
        <ele>0.000000</ele>
        <time>2009-12-08T15:35:58Z</time>
      </trkpt>
      <trkpt lat="50.598494" lon="6.630727">
        <ele>0.000000</ele>
        <time>2009-12-08T15:35:58Z</time>
      </trkpt>
      <trkpt lat="50.598579" lon="6.630662">
        <ele>0.000000</ele>
        <time>2009-12-08T15:35:58Z</time>
      </trkpt>
      <trkpt lat="50.598640" lon="6.630426">
        <ele>0.000000</ele>
        <time>2009-12-08T15:35:58Z</time>
      </trkpt>
      <trkpt lat="50.598456" lon="6.630056">
        <ele>0.000000</ele>
        <time>2009-12-08T15:35:58Z</time>
      </trkpt>
      <trkpt lat="50.598286" lon="6.629766">
        <ele>0.000000</ele>
        <time>2009-12-08T15:35:58Z</time>
      </trkpt>
      <trkpt lat="50.598092" lon="6.629455">
        <ele>0.000000</ele>
        <time>2009-12-08T15:35:58Z</time>
      </trkpt>
      <trkpt lat="50.597816" lon="6.629037">
        <ele>0.000000</ele>
        <time>2009-12-08T15:35:58Z</time>
      </trkpt>
      <trkpt lat="50.597595" lon="6.628463">
        <ele>0.000000</ele>
        <time>2009-12-08T15:35:58Z</time>
      </trkpt>
      <trkpt lat="50.597469" lon="6.628109">
        <ele>0.000000</ele>
        <time>2009-12-08T15:35:58Z</time>
      </trkpt>
      <trkpt lat="50.597282" lon="6.627728">
        <ele>0.000000</ele>
        <time>2009-12-08T15:35:58Z</time>
      </trkpt>
      <trkpt lat="50.597064" lon="6.627352">
        <ele>0.000000</ele>
        <time>2009-12-08T15:35:58Z</time>
      </trkpt>
      <trkpt lat="50.596798" lon="6.626886">
        <ele>0.000000</ele>
        <time>2009-12-08T15:35:58Z</time>
      </trkpt>
      <trkpt lat="50.596543" lon="6.626161">
        <ele>0.000000</ele>
        <time>2009-12-08T15:35:58Z</time>
      </trkpt>
      <trkpt lat="50.596451" lon="6.625813">
        <ele>0.000000</ele>
        <time>2009-12-08T15:35:58Z</time>
      </trkpt>
      <trkpt lat="50.596458" lon="6.625201">
        <ele>0.000000</ele>
        <time>2009-12-08T15:35:58Z</time>
      </trkpt>
      <trkpt lat="50.596580" lon="6.624649">
        <ele>0.000000</ele>
        <time>2009-12-08T15:35:58Z</time>
      </trkpt>
      <trkpt lat="50.596784" lon="6.624177">
        <ele>0.000000</ele>
        <time>2009-12-08T15:35:58Z</time>
      </trkpt>
      <trkpt lat="50.596982" lon="6.623871">
        <ele>0.000000</ele>
        <time>2009-12-08T15:35:58Z</time>
      </trkpt>
      <trkpt lat="50.597234" lon="6.622964">
        <ele>0.000000</ele>
        <time>2009-12-08T15:35:58Z</time>
      </trkpt>
      <trkpt lat="50.597499" lon="6.621500">
        <ele>0.000000</ele>
        <time>2009-12-08T15:35:58Z</time>
      </trkpt>
      <trkpt lat="50.597646" lon="6.620690">
        <ele>0.000000</ele>
        <time>2009-12-08T15:35:58Z</time>
      </trkpt>
      <trkpt lat="50.598899" lon="6.619633">
        <ele>0.000000</ele>
        <time>2009-12-08T15:35:58Z</time>
      </trkpt>
      <trkpt lat="50.599924" lon="6.618769">
        <ele>0.000000</ele>
        <time>2009-12-08T15:35:58Z</time>
      </trkpt>
      <trkpt lat="50.600775" lon="6.618066">
        <ele>0.000000</ele>
        <time>2009-12-08T15:35:58Z</time>
      </trkpt>
      <trkpt lat="50.600646" lon="6.617101">
        <ele>0.000000</ele>
        <time>2009-12-08T15:35:58Z</time>
      </trkpt>
      <trkpt lat="50.600271" lon="6.615186">
        <ele>0.000000</ele>
        <time>2009-12-08T15:35:58Z</time>
      </trkpt>
      <trkpt lat="50.600149" lon="6.614762">
        <ele>0.000000</ele>
        <time>2009-12-08T15:35:58Z</time>
      </trkpt>
      <trkpt lat="50.599260" lon="6.612992">
        <ele>0.000000</ele>
        <time>2009-12-08T15:35:58Z</time>
      </trkpt>
      <trkpt lat="50.598872" lon="6.612042">
        <ele>0.000000</ele>
        <time>2009-12-08T15:35:58Z</time>
      </trkpt>
      <trkpt lat="50.599090" lon="6.611763">
        <ele>0.000000</ele>
        <time>2009-12-08T15:35:58Z</time>
      </trkpt>
      <trkpt lat="50.599699" lon="6.611141">
        <ele>0.000000</ele>
        <time>2009-12-08T15:35:58Z</time>
      </trkpt>
      <trkpt lat="50.599914" lon="6.610916">
        <ele>0.000000</ele>
        <time>2009-12-08T15:35:58Z</time>
      </trkpt>
      <trkpt lat="50.600384" lon="6.610331">
        <ele>0.000000</ele>
        <time>2009-12-08T15:35:58Z</time>
      </trkpt>
      <trkpt lat="50.600908" lon="6.609709">
        <ele>0.000000</ele>
        <time>2009-12-08T15:35:58Z</time>
      </trkpt>
      <trkpt lat="50.600336" lon="6.609086">
        <ele>0.000000</ele>
        <time>2009-12-08T15:35:58Z</time>
      </trkpt>
      <trkpt lat="50.599464" lon="6.608217">
        <ele>0.000000</ele>
        <time>2009-12-08T15:35:58Z</time>
      </trkpt>
      <trkpt lat="50.598872" lon="6.607767">
        <ele>0.000000</ele>
        <time>2009-12-08T15:35:58Z</time>
      </trkpt>
      <trkpt lat="50.599335" lon="6.606919">
        <ele>0.000000</ele>
        <time>2009-12-08T15:35:58Z</time>
      </trkpt>
      <trkpt lat="50.598858" lon="6.605964">
        <ele>0.000000</ele>
        <time>2009-12-08T15:35:58Z</time>
      </trkpt>
      <trkpt lat="50.597908" lon="6.604092">
        <ele>0.000000</ele>
        <time>2009-12-08T15:35:58Z</time>
      </trkpt>
      <trkpt lat="50.597118" lon="6.602467">
        <ele>0.000000</ele>
        <time>2009-12-08T15:35:58Z</time>
      </trkpt>
      <trkpt lat="50.598140" lon="6.601002">
        <ele>0.000000</ele>
        <time>2009-12-08T15:35:58Z</time>
      </trkpt>
      <trkpt lat="50.599056" lon="6.599715">
        <ele>0.000000</ele>
        <time>2009-12-08T15:35:58Z</time>
      </trkpt>
      <trkpt lat="50.599658" lon="6.598824">
        <ele>0.000000</ele>
        <time>2009-12-08T15:35:58Z</time>
      </trkpt>
      <trkpt lat="50.599829" lon="6.598411">
        <ele>0.000000</ele>
        <time>2009-12-08T15:35:58Z</time>
      </trkpt>
      <trkpt lat="50.599672" lon="6.598245">
        <ele>0.000000</ele>
        <time>2009-12-08T15:35:58Z</time>
      </trkpt>
      <trkpt lat="50.599311" lon="6.597413">
        <ele>0.000000</ele>
        <time>2009-12-08T15:35:58Z</time>
      </trkpt>
      <trkpt lat="50.598848" lon="6.596759">
        <ele>0.000000</ele>
        <time>2009-12-08T15:35:58Z</time>
      </trkpt>
      <trkpt lat="50.598599" lon="6.596185">
        <ele>0.000000</ele>
        <time>2009-12-08T15:35:58Z</time>
      </trkpt>
      <trkpt lat="50.598538" lon="6.595922">
        <ele>0.000000</ele>
        <time>2009-12-08T15:35:58Z</time>
      </trkpt>
      <trkpt lat="50.598535" lon="6.595697">
        <ele>0.000000</ele>
        <time>2009-12-08T15:35:58Z</time>
      </trkpt>
      <trkpt lat="50.598562" lon="6.595504">
        <ele>0.000000</ele>
        <time>2009-12-08T15:35:58Z</time>
      </trkpt>
      <trkpt lat="50.598678" lon="6.595241">
        <ele>0.000000</ele>
        <time>2009-12-08T15:35:58Z</time>
      </trkpt>
      <trkpt lat="50.598753" lon="6.595214">
        <ele>0.000000</ele>
        <time>2009-12-08T15:35:58Z</time>
      </trkpt>
      <trkpt lat="50.598586" lon="6.594576">
        <ele>0.000000</ele>
        <time>2009-12-08T15:35:58Z</time>
      </trkpt>
      <trkpt lat="50.598449" lon="6.593986">
        <ele>0.000000</ele>
        <time>2009-12-08T15:35:58Z</time>
      </trkpt>
      <trkpt lat="50.598337" lon="6.593653">
        <ele>0.000000</ele>
        <time>2009-12-08T15:35:58Z</time>
      </trkpt>
      <trkpt lat="50.598007" lon="6.593079">
        <ele>0.000000</ele>
        <time>2009-12-08T15:35:58Z</time>
      </trkpt>
      <trkpt lat="50.597642" lon="6.592537">
        <ele>0.000000</ele>
        <time>2009-12-08T15:35:58Z</time>
      </trkpt>
      <trkpt lat="50.597271" lon="6.592280">
        <ele>0.000000</ele>
        <time>2009-12-08T15:35:58Z</time>
      </trkpt>
      <trkpt lat="50.596876" lon="6.591936">
        <ele>0.000000</ele>
        <time>2009-12-08T15:35:58Z</time>
      </trkpt>
      <trkpt lat="50.596437" lon="6.591394">
        <ele>0.000000</ele>
        <time>2009-12-08T15:35:58Z</time>
      </trkpt>
      <trkpt lat="50.596386" lon="6.591346">
        <ele>0.000000</ele>
        <time>2009-12-08T15:35:58Z</time>
      </trkpt>
      <trkpt lat="50.595991" lon="6.591030">
        <ele>0.000000</ele>
        <time>2009-12-08T15:35:58Z</time>
      </trkpt>
      <trkpt lat="50.595783" lon="6.590778">
        <ele>0.000000</ele>
        <time>2009-12-08T15:35:58Z</time>
      </trkpt>
      <trkpt lat="50.595514" lon="6.590257">
        <ele>0.000000</ele>
        <time>2009-12-08T15:35:58Z</time>
      </trkpt>
      <trkpt lat="50.595402" lon="6.590161">
        <ele>0.000000</ele>
        <time>2009-12-08T15:35:58Z</time>
      </trkpt>
      <trkpt lat="50.595065" lon="6.589989">
        <ele>0.000000</ele>
        <time>2009-12-08T15:35:58Z</time>
      </trkpt>
      <trkpt lat="50.594901" lon="6.589737">
        <ele>0.000000</ele>
        <time>2009-12-08T15:35:58Z</time>
      </trkpt>
      <trkpt lat="50.594728" lon="6.589490">
        <ele>0.000000</ele>
        <time>2009-12-08T15:35:58Z</time>
      </trkpt>
      <trkpt lat="50.594421" lon="6.589082">
        <ele>0.000000</ele>
        <time>2009-12-08T15:35:58Z</time>
      </trkpt>
      <trkpt lat="50.594016" lon="6.588664">
        <ele>0.000000</ele>
        <time>2009-12-08T15:35:58Z</time>
      </trkpt>
      <trkpt lat="50.593611" lon="6.588246">
        <ele>0.000000</ele>
        <time>2009-12-08T15:35:58Z</time>
      </trkpt>
      <trkpt lat="50.593502" lon="6.588192">
        <ele>0.000000</ele>
        <time>2009-12-08T15:35:58Z</time>
      </trkpt>
      <trkpt lat="50.593628" lon="6.587961">
        <ele>0.000000</ele>
        <time>2009-12-08T15:35:58Z</time>
      </trkpt>
      <trkpt lat="50.593617" lon="6.587795">
        <ele>0.000000</ele>
        <time>2009-12-08T15:35:58Z</time>
      </trkpt>
      <trkpt lat="50.593498" lon="6.587457">
        <ele>0.000000</ele>
        <time>2009-12-08T15:35:58Z</time>
      </trkpt>
      <trkpt lat="50.592998" lon="6.586127">
        <ele>0.000000</ele>
        <time>2009-12-08T15:35:58Z</time>
      </trkpt>
      <trkpt lat="50.592507" lon="6.584662">
        <ele>0.000000</ele>
        <time>2009-12-08T15:35:58Z</time>
      </trkpt>
      <trkpt lat="50.591775" lon="6.583101">
        <ele>0.000000</ele>
        <time>2009-12-08T15:35:58Z</time>
      </trkpt>
      <trkpt lat="50.591942" lon="6.582870">
        <ele>0.000000</ele>
        <time>2009-12-08T15:35:58Z</time>
      </trkpt>
      <trkpt lat="50.592279" lon="6.582490">
        <ele>0.000000</ele>
        <time>2009-12-08T15:35:58Z</time>
      </trkpt>
      <trkpt lat="50.592391" lon="6.582334">
        <ele>0.000000</ele>
        <time>2009-12-08T15:35:58Z</time>
      </trkpt>
      <trkpt lat="50.592511" lon="6.582280">
        <ele>0.000000</ele>
        <time>2009-12-08T15:35:58Z</time>
      </trkpt>
      <trkpt lat="50.592708" lon="6.582355">
        <ele>0.000000</ele>
        <time>2009-12-08T15:35:58Z</time>
      </trkpt>
      <trkpt lat="50.592906" lon="6.582452">
        <ele>0.000000</ele>
        <time>2009-12-08T15:35:58Z</time>
      </trkpt>
      <trkpt lat="50.593028" lon="6.582372">
        <ele>0.000000</ele>
        <time>2009-12-08T15:35:58Z</time>
      </trkpt>
      <trkpt lat="50.592902" lon="6.582044">
        <ele>0.000000</ele>
        <time>2009-12-08T15:35:58Z</time>
      </trkpt>
      <trkpt lat="50.592630" lon="6.581116">
        <ele>0.000000</ele>
        <time>2009-12-08T15:35:58Z</time>
      </trkpt>
      <trkpt lat="50.592361" lon="6.580172">
        <ele>0.000000</ele>
        <time>2009-12-08T15:35:58Z</time>
      </trkpt>
      <trkpt lat="50.592364" lon="6.579968">
        <ele>0.000000</ele>
        <time>2009-12-08T15:35:58Z</time>
      </trkpt>
      <trkpt lat="50.592351" lon="6.579909">
        <ele>0.000000</ele>
        <time>2009-12-08T15:35:58Z</time>
      </trkpt>
      <trkpt lat="50.591847" lon="6.578439">
        <ele>0.000000</ele>
        <time>2009-12-08T15:35:58Z</time>
      </trkpt>
      <trkpt lat="50.591111" lon="6.576380">
        <ele>0.000000</ele>
        <time>2009-12-08T15:35:58Z</time>
      </trkpt>
      <trkpt lat="50.591765" lon="6.575607">
        <ele>0.000000</ele>
        <time>2009-12-08T15:35:58Z</time>
      </trkpt>
      <trkpt lat="50.591271" lon="6.574523">
        <ele>0.000000</ele>
        <time>2009-12-08T15:35:58Z</time>
      </trkpt>
      <trkpt lat="50.590365" lon="6.573504">
        <ele>0.000000</ele>
        <time>2009-12-08T15:35:58Z</time>
      </trkpt>
      <trkpt lat="50.590311" lon="6.573327">
        <ele>0.000000</ele>
        <time>2009-12-08T15:35:58Z</time>
      </trkpt>
      <trkpt lat="50.590185" lon="6.572962">
        <ele>0.000000</ele>
        <time>2009-12-08T15:35:58Z</time>
      </trkpt>
      <trkpt lat="50.590120" lon="6.572603">
        <ele>0.000000</ele>
        <time>2009-12-08T15:35:58Z</time>
      </trkpt>
      <trkpt lat="50.590038" lon="6.572217">
        <ele>0.000000</ele>
        <time>2009-12-08T15:35:58Z</time>
      </trkpt>
      <trkpt lat="50.589824" lon="6.571745">
        <ele>0.000000</ele>
        <time>2009-12-08T15:35:58Z</time>
      </trkpt>
      <trkpt lat="50.589786" lon="6.571648">
        <ele>0.000000</ele>
        <time>2009-12-08T15:35:58Z</time>
      </trkpt>
      <trkpt lat="50.589905" lon="6.571493">
        <ele>0.000000</ele>
        <time>2009-12-08T15:35:58Z</time>
      </trkpt>
      <trkpt lat="50.589824" lon="6.571455">
        <ele>0.000000</ele>
        <time>2009-12-08T15:35:58Z</time>
      </trkpt>
      <trkpt lat="50.589235" lon="6.571401">
        <ele>0.000000</ele>
        <time>2009-12-08T15:35:58Z</time>
      </trkpt>
      <trkpt lat="50.589136" lon="6.571305">
        <ele>0.000000</ele>
        <time>2009-12-08T15:35:58Z</time>
      </trkpt>
      <trkpt lat="50.589071" lon="6.571203">
        <ele>0.000000</ele>
        <time>2009-12-08T15:35:58Z</time>
      </trkpt>
      <trkpt lat="50.588897" lon="6.570822">
        <ele>0.000000</ele>
        <time>2009-12-08T15:35:58Z</time>
      </trkpt>
      <trkpt lat="50.588700" lon="6.570221">
        <ele>0.000000</ele>
        <time>2009-12-08T15:35:58Z</time>
      </trkpt>
      <trkpt lat="50.588615" lon="6.569958">
        <ele>0.000000</ele>
        <time>2009-12-08T15:35:58Z</time>
      </trkpt>
      <trkpt lat="50.588475" lon="6.569636">
        <ele>0.000000</ele>
        <time>2009-12-08T15:35:58Z</time>
      </trkpt>
      <trkpt lat="50.588342" lon="6.569384">
        <ele>0.000000</ele>
        <time>2009-12-08T15:35:58Z</time>
      </trkpt>
      <trkpt lat="50.587971" lon="6.568918">
        <ele>0.000000</ele>
        <time>2009-12-08T15:35:58Z</time>
      </trkpt>
      <trkpt lat="50.587521" lon="6.568381">
        <ele>0.000000</ele>
        <time>2009-12-08T15:35:58Z</time>
      </trkpt>
      <trkpt lat="50.586813" lon="6.567528">
        <ele>0.000000</ele>
        <time>2009-12-08T15:35:58Z</time>
      </trkpt>
      <trkpt lat="50.586353" lon="6.566895">
        <ele>0.000000</ele>
        <time>2009-12-08T15:35:58Z</time>
      </trkpt>
      <trkpt lat="50.586081" lon="6.566488">
        <ele>0.000000</ele>
        <time>2009-12-08T15:35:58Z</time>
      </trkpt>
      <trkpt lat="50.585921" lon="6.566246">
        <ele>0.000000</ele>
        <time>2009-12-08T15:35:58Z</time>
      </trkpt>
      <trkpt lat="50.585720" lon="6.566042">
        <ele>0.000000</ele>
        <time>2009-12-08T15:35:58Z</time>
      </trkpt>
      <trkpt lat="50.585543" lon="6.565956">
        <ele>0.000000</ele>
        <time>2009-12-08T15:35:58Z</time>
      </trkpt>
      <trkpt lat="50.585396" lon="6.565989">
        <ele>0.000000</ele>
        <time>2009-12-08T15:35:58Z</time>
      </trkpt>
      <trkpt lat="50.585175" lon="6.566241">
        <ele>0.000000</ele>
        <time>2009-12-08T15:35:58Z</time>
      </trkpt>
      <trkpt lat="50.585018" lon="6.566450">
        <ele>0.000000</ele>
        <time>2009-12-08T15:35:58Z</time>
      </trkpt>
      <trkpt lat="50.584871" lon="6.566472">
        <ele>0.000000</ele>
        <time>2009-12-08T15:35:58Z</time>
      </trkpt>
      <trkpt lat="50.584773" lon="6.566418">
        <ele>0.000000</ele>
        <time>2009-12-08T15:35:58Z</time>
      </trkpt>
      <trkpt lat="50.584626" lon="6.566273">
        <ele>0.000000</ele>
        <time>2009-12-08T15:35:58Z</time>
      </trkpt>
      <trkpt lat="50.584374" lon="6.565694">
        <ele>0.000000</ele>
        <time>2009-12-08T15:35:58Z</time>
      </trkpt>
      <trkpt lat="50.584201" lon="6.565297">
        <ele>0.000000</ele>
        <time>2009-12-08T15:35:58Z</time>
      </trkpt>
      <trkpt lat="50.583949" lon="6.564792">
        <ele>0.000000</ele>
        <time>2009-12-08T15:35:58Z</time>
      </trkpt>
      <trkpt lat="50.583581" lon="6.564267">
        <ele>0.000000</ele>
        <time>2009-12-08T15:35:58Z</time>
      </trkpt>
      <trkpt lat="50.583312" lon="6.564090">
        <ele>0.000000</ele>
        <time>2009-12-08T15:35:58Z</time>
      </trkpt>
      <trkpt lat="50.582927" lon="6.563982">
        <ele>0.000000</ele>
        <time>2009-12-08T15:35:58Z</time>
      </trkpt>
      <trkpt lat="50.582715" lon="6.563891">
        <ele>0.000000</ele>
        <time>2009-12-08T15:35:58Z</time>
      </trkpt>
      <trkpt lat="50.582419" lon="6.563741">
        <ele>0.000000</ele>
        <time>2009-12-08T15:35:58Z</time>
      </trkpt>
      <trkpt lat="50.582245" lon="6.563542">
        <ele>0.000000</ele>
        <time>2009-12-08T15:35:58Z</time>
      </trkpt>
      <trkpt lat="50.581908" lon="6.563795">
        <ele>0.000000</ele>
        <time>2009-12-08T15:35:58Z</time>
      </trkpt>
      <trkpt lat="50.581745" lon="6.563934">
        <ele>0.000000</ele>
        <time>2009-12-08T15:35:58Z</time>
      </trkpt>
      <trkpt lat="50.580886" lon="6.564428">
        <ele>0.000000</ele>
        <time>2009-12-08T15:35:58Z</time>
      </trkpt>
      <trkpt lat="50.580403" lon="6.565109">
        <ele>0.000000</ele>
        <time>2009-12-08T15:35:58Z</time>
      </trkpt>
      <trkpt lat="50.580089" lon="6.565356">
        <ele>0.000000</ele>
        <time>2009-12-08T15:35:58Z</time>
      </trkpt>
      <trkpt lat="50.579766" lon="6.565527">
        <ele>0.000000</ele>
        <time>2009-12-08T15:35:58Z</time>
      </trkpt>
      <trkpt lat="50.579374" lon="6.565678">
        <ele>0.000000</ele>
        <time>2009-12-08T15:35:58Z</time>
      </trkpt>
      <trkpt lat="50.578931" lon="6.565860">
        <ele>0.000000</ele>
        <time>2009-12-08T15:35:58Z</time>
      </trkpt>
      <trkpt lat="50.578550" lon="6.565967">
        <ele>0.000000</ele>
        <time>2009-12-08T15:35:58Z</time>
      </trkpt>
      <trkpt lat="50.578372" lon="6.565141">
        <ele>0.000000</ele>
        <time>2009-12-08T15:35:58Z</time>
      </trkpt>
      <trkpt lat="50.578120" lon="6.563955">
        <ele>0.000000</ele>
        <time>2009-12-08T15:35:58Z</time>
      </trkpt>
      <trkpt lat="50.577916" lon="6.562840">
        <ele>0.000000</ele>
        <time>2009-12-08T15:35:58Z</time>
      </trkpt>
      <trkpt lat="50.577541" lon="6.562765">
        <ele>0.000000</ele>
        <time>2009-12-08T15:35:58Z</time>
      </trkpt>
      <trkpt lat="50.576741" lon="6.562609">
        <ele>0.000000</ele>
        <time>2009-12-08T15:35:58Z</time>
      </trkpt>
      <trkpt lat="50.575821" lon="6.562437">
        <ele>0.000000</ele>
        <time>2009-12-08T15:35:58Z</time>
      </trkpt>
      <trkpt lat="50.575358" lon="6.562346">
        <ele>0.000000</ele>
        <time>2009-12-08T15:35:58Z</time>
      </trkpt>
      <trkpt lat="50.574758" lon="6.562142">
        <ele>0.000000</ele>
        <time>2009-12-08T15:35:58Z</time>
      </trkpt>
      <trkpt lat="50.574213" lon="6.561874">
        <ele>0.000000</ele>
        <time>2009-12-08T15:35:58Z</time>
      </trkpt>
      <trkpt lat="50.573794" lon="6.561670">
        <ele>0.000000</ele>
        <time>2009-12-08T15:35:58Z</time>
      </trkpt>
      <trkpt lat="50.573218" lon="6.561279">
        <ele>0.000000</ele>
        <time>2009-12-08T15:35:58Z</time>
      </trkpt>
      <trkpt lat="50.572697" lon="6.561306">
        <ele>0.000000</ele>
        <time>2009-12-08T15:35:58Z</time>
      </trkpt>
      <trkpt lat="50.572216" lon="6.561059">
        <ele>0.000000</ele>
        <time>2009-12-08T15:35:58Z</time>
      </trkpt>
      <trkpt lat="50.571426" lon="6.560624">
        <ele>0.000000</ele>
        <time>2009-12-08T15:35:58Z</time>
      </trkpt>
      <trkpt lat="50.571296" lon="6.560630">
        <ele>0.000000</ele>
        <time>2009-12-08T15:35:58Z</time>
      </trkpt>
      <trkpt lat="50.571058" lon="6.559289">
        <ele>0.000000</ele>
        <time>2009-12-08T15:35:58Z</time>
      </trkpt>
      <trkpt lat="50.570755" lon="6.558462">
        <ele>0.000000</ele>
        <time>2009-12-08T15:35:58Z</time>
      </trkpt>
      <trkpt lat="50.570499" lon="6.557400">
        <ele>0.000000</ele>
        <time>2009-12-08T15:35:58Z</time>
      </trkpt>
      <trkpt lat="50.570210" lon="6.556343">
        <ele>0.000000</ele>
        <time>2009-12-08T15:35:58Z</time>
      </trkpt>
      <trkpt lat="50.570210" lon="6.555619">
        <ele>0.000000</ele>
        <time>2009-12-08T15:35:58Z</time>
      </trkpt>
      <trkpt lat="50.570145" lon="6.554434">
        <ele>0.000000</ele>
        <time>2009-12-08T15:35:58Z</time>
      </trkpt>
      <trkpt lat="50.570397" lon="6.553431">
        <ele>0.000000</ele>
        <time>2009-12-08T15:35:58Z</time>
      </trkpt>
      <trkpt lat="50.570411" lon="6.552594">
        <ele>0.000000</ele>
        <time>2009-12-08T15:35:58Z</time>
      </trkpt>
      <trkpt lat="50.570302" lon="6.552063">
        <ele>0.000000</ele>
        <time>2009-12-08T15:35:58Z</time>
      </trkpt>
      <trkpt lat="50.570237" lon="6.551296">
        <ele>0.000000</ele>
        <time>2009-12-08T15:35:58Z</time>
      </trkpt>
      <trkpt lat="50.570237" lon="6.550920">
        <ele>0.000000</ele>
        <time>2009-12-08T15:35:58Z</time>
      </trkpt>
      <trkpt lat="50.570550" lon="6.549665">
        <ele>0.000000</ele>
        <time>2009-12-08T15:35:58Z</time>
      </trkpt>
      <trkpt lat="50.570625" lon="6.549402">
        <ele>0.000000</ele>
        <time>2009-12-08T15:35:58Z</time>
      </trkpt>
      <trkpt lat="50.571041" lon="6.548002">
        <ele>0.000000</ele>
        <time>2009-12-08T15:35:58Z</time>
      </trkpt>
      <trkpt lat="50.571365" lon="6.547224">
        <ele>0.000000</ele>
        <time>2009-12-08T15:35:58Z</time>
      </trkpt>
      <trkpt lat="50.571477" lon="6.546924">
        <ele>0.000000</ele>
        <time>2009-12-08T15:35:58Z</time>
      </trkpt>
      <trkpt lat="50.571801" lon="6.546264">
        <ele>0.000000</ele>
        <time>2009-12-08T15:35:58Z</time>
      </trkpt>
      <trkpt lat="50.572155" lon="6.545427">
        <ele>0.000000</ele>
        <time>2009-12-08T15:35:58Z</time>
      </trkpt>
      <trkpt lat="50.572339" lon="6.544917">
        <ele>0.000000</ele>
        <time>2009-12-08T15:35:58Z</time>
      </trkpt>
      <trkpt lat="50.572615" lon="6.543887">
        <ele>0.000000</ele>
        <time>2009-12-08T15:35:58Z</time>
      </trkpt>
      <trkpt lat="50.573068" lon="6.542476">
        <ele>0.000000</ele>
        <time>2009-12-08T15:35:58Z</time>
      </trkpt>
      <trkpt lat="50.573470" lon="6.541114">
        <ele>0.000000</ele>
        <time>2009-12-08T15:35:58Z</time>
      </trkpt>
      <trkpt lat="50.573872" lon="6.539848">
        <ele>0.000000</ele>
        <time>2009-12-08T15:35:58Z</time>
      </trkpt>
      <trkpt lat="50.574199" lon="6.538866">
        <ele>0.000000</ele>
        <time>2009-12-08T15:35:58Z</time>
      </trkpt>
      <trkpt lat="50.574267" lon="6.538400">
        <ele>0.000000</ele>
        <time>2009-12-08T15:35:58Z</time>
      </trkpt>
      <trkpt lat="50.574247" lon="6.537997">
        <ele>0.000000</ele>
        <time>2009-12-08T15:35:58Z</time>
      </trkpt>
      <trkpt lat="50.574478" lon="6.537310">
        <ele>0.000000</ele>
        <time>2009-12-08T15:35:58Z</time>
      </trkpt>
      <trkpt lat="50.574819" lon="6.536436">
        <ele>0.000000</ele>
        <time>2009-12-08T15:35:58Z</time>
      </trkpt>
      <trkpt lat="50.575180" lon="6.535610">
        <ele>0.000000</ele>
        <time>2009-12-08T15:35:58Z</time>
      </trkpt>
      <trkpt lat="50.575763" lon="6.534789">
        <ele>0.000000</ele>
        <time>2009-12-08T15:35:58Z</time>
      </trkpt>
      <trkpt lat="50.576359" lon="6.533963">
        <ele>0.000000</ele>
        <time>2009-12-08T15:35:58Z</time>
      </trkpt>
      <trkpt lat="50.576867" lon="6.533201">
        <ele>0.000000</ele>
        <time>2009-12-08T15:35:58Z</time>
      </trkpt>
      <trkpt lat="50.577344" lon="6.532466">
        <ele>0.000000</ele>
        <time>2009-12-08T15:35:58Z</time>
      </trkpt>
      <trkpt lat="50.577844" lon="6.530911">
        <ele>0.000000</ele>
        <time>2009-12-08T15:35:58Z</time>
      </trkpt>
      <trkpt lat="50.578096" lon="6.529886">
        <ele>0.000000</ele>
        <time>2009-12-08T15:35:58Z</time>
      </trkpt>
      <trkpt lat="50.578403" lon="6.528497">
        <ele>0.000000</ele>
        <time>2009-12-08T15:35:58Z</time>
      </trkpt>
      <trkpt lat="50.578672" lon="6.527284">
        <ele>0.000000</ele>
        <time>2009-12-08T15:35:58Z</time>
      </trkpt>
      <trkpt lat="50.578948" lon="6.526346">
        <ele>0.000000</ele>
        <time>2009-12-08T15:35:58Z</time>
      </trkpt>
      <trkpt lat="50.579571" lon="6.525423">
        <ele>0.000000</ele>
        <time>2009-12-08T15:35:58Z</time>
      </trkpt>
      <trkpt lat="50.580553" lon="6.524001">
        <ele>0.000000</ele>
        <time>2009-12-08T15:35:58Z</time>
      </trkpt>
      <trkpt lat="50.581414" lon="6.522762">
        <ele>0.000000</ele>
        <time>2009-12-08T15:35:58Z</time>
      </trkpt>
      <trkpt lat="50.582252" lon="6.521534">
        <ele>0.000000</ele>
        <time>2009-12-08T15:35:58Z</time>
      </trkpt>
      <trkpt lat="50.583005" lon="6.520413">
        <ele>0.000000</ele>
        <time>2009-12-08T15:35:58Z</time>
      </trkpt>
      <trkpt lat="50.583131" lon="6.520225">
        <ele>0.000000</ele>
        <time>2009-12-08T15:35:58Z</time>
      </trkpt>
      <trkpt lat="50.583223" lon="6.519581">
        <ele>0.000000</ele>
        <time>2009-12-08T15:35:58Z</time>
      </trkpt>
      <trkpt lat="50.583196" lon="6.519157">
        <ele>0.000000</ele>
        <time>2009-12-08T15:35:58Z</time>
      </trkpt>
      <trkpt lat="50.582896" lon="6.518004">
        <ele>0.000000</ele>
        <time>2009-12-08T15:35:58Z</time>
      </trkpt>
      <trkpt lat="50.582460" lon="6.516110">
        <ele>0.000000</ele>
        <time>2009-12-08T15:35:58Z</time>
      </trkpt>
      <trkpt lat="50.582406" lon="6.515091">
        <ele>0.000000</ele>
        <time>2009-12-08T15:35:58Z</time>
      </trkpt>
      <trkpt lat="50.582293" lon="6.513932">
        <ele>0.000000</ele>
        <time>2009-12-08T15:35:58Z</time>
      </trkpt>
      <trkpt lat="50.582021" lon="6.513042">
        <ele>0.000000</ele>
        <time>2009-12-08T15:35:58Z</time>
      </trkpt>
      <trkpt lat="50.581704" lon="6.512291">
        <ele>0.000000</ele>
        <time>2009-12-08T15:35:58Z</time>
      </trkpt>
      <trkpt lat="50.581639" lon="6.512044">
        <ele>0.000000</ele>
        <time>2009-12-08T15:35:58Z</time>
      </trkpt>
      <trkpt lat="50.582256" lon="6.511100">
        <ele>0.000000</ele>
        <time>2009-12-08T15:35:58Z</time>
      </trkpt>
      <trkpt lat="50.582971" lon="6.510220">
        <ele>0.000000</ele>
        <time>2009-12-08T15:35:58Z</time>
      </trkpt>
      <trkpt lat="50.583431" lon="6.509668">
        <ele>0.000000</ele>
        <time>2009-12-08T15:35:58Z</time>
      </trkpt>
      <trkpt lat="50.583703" lon="6.509056">
        <ele>0.000000</ele>
        <time>2009-12-08T15:35:58Z</time>
      </trkpt>
      <trkpt lat="50.583989" lon="6.508053">
        <ele>0.000000</ele>
        <time>2009-12-08T15:35:58Z</time>
      </trkpt>
      <trkpt lat="50.584248" lon="6.507608">
        <ele>0.000000</ele>
        <time>2009-12-08T15:35:58Z</time>
      </trkpt>
      <trkpt lat="50.584708" lon="6.507034">
        <ele>0.000000</ele>
        <time>2009-12-08T15:35:58Z</time>
      </trkpt>
      <trkpt lat="50.585093" lon="6.506835">
        <ele>0.000000</ele>
        <time>2009-12-08T15:35:58Z</time>
      </trkpt>
      <trkpt lat="50.585744" lon="6.506492">
        <ele>0.000000</ele>
        <time>2009-12-08T15:35:58Z</time>
      </trkpt>
      <trkpt lat="50.586115" lon="6.506470">
        <ele>0.000000</ele>
        <time>2009-12-08T15:35:58Z</time>
      </trkpt>
      <trkpt lat="50.586374" lon="6.506444">
        <ele>0.000000</ele>
        <time>2009-12-08T15:35:58Z</time>
      </trkpt>
      <trkpt lat="50.586554" lon="6.506470">
        <ele>0.000000</ele>
        <time>2009-12-08T15:35:58Z</time>
      </trkpt>
      <trkpt lat="50.586840" lon="6.506191">
        <ele>0.000000</ele>
        <time>2009-12-08T15:35:58Z</time>
      </trkpt>
      <trkpt lat="50.586901" lon="6.506090">
        <ele>0.000000</ele>
        <time>2009-12-08T15:35:58Z</time>
      </trkpt>
      <trkpt lat="50.586837" lon="6.505843">
        <ele>0.000000</ele>
        <time>2009-12-08T15:35:58Z</time>
      </trkpt>
      <trkpt lat="50.586663" lon="6.505596">
        <ele>0.000000</ele>
        <time>2009-12-08T15:35:58Z</time>
      </trkpt>
      <trkpt lat="50.586663" lon="6.505473">
        <ele>0.000000</ele>
        <time>2009-12-08T15:35:58Z</time>
      </trkpt>
      <trkpt lat="50.586728" lon="6.505274">
        <ele>0.000000</ele>
        <time>2009-12-08T15:35:58Z</time>
      </trkpt>
      <trkpt lat="50.586918" lon="6.504963">
        <ele>0.000000</ele>
        <time>2009-12-08T15:35:58Z</time>
      </trkpt>
      <trkpt lat="50.586983" lon="6.504802">
        <ele>0.000000</ele>
        <time>2009-12-08T15:35:58Z</time>
      </trkpt>
      <trkpt lat="50.587017" lon="6.503955">
        <ele>0.000000</ele>
        <time>2009-12-08T15:35:58Z</time>
      </trkpt>
      <trkpt lat="50.587079" lon="6.503348">
        <ele>0.000000</ele>
        <time>2009-12-08T15:35:58Z</time>
      </trkpt>
      <trkpt lat="50.586987" lon="6.502683">
        <ele>0.000000</ele>
        <time>2009-12-08T15:35:58Z</time>
      </trkpt>
      <trkpt lat="50.586884" lon="6.502222">
        <ele>0.000000</ele>
        <time>2009-12-08T15:35:58Z</time>
      </trkpt>
      <trkpt lat="50.586701" lon="6.501878">
        <ele>0.000000</ele>
        <time>2009-12-08T15:35:58Z</time>
      </trkpt>
      <trkpt lat="50.586452" lon="6.501385">
        <ele>0.000000</ele>
        <time>2009-12-08T15:35:58Z</time>
      </trkpt>
      <trkpt lat="50.586374" lon="6.501074">
        <ele>0.000000</ele>
        <time>2009-12-08T15:35:58Z</time>
      </trkpt>
      <trkpt lat="50.586404" lon="6.500704">
        <ele>0.000000</ele>
        <time>2009-12-08T15:35:58Z</time>
      </trkpt>
      <trkpt lat="50.586489" lon="6.500296">
        <ele>0.000000</ele>
        <time>2009-12-08T15:35:58Z</time>
      </trkpt>
      <trkpt lat="50.586653" lon="6.500001">
        <ele>0.000000</ele>
        <time>2009-12-08T15:35:58Z</time>
      </trkpt>
      <trkpt lat="50.586881" lon="6.499685">
        <ele>0.000000</ele>
        <time>2009-12-08T15:35:58Z</time>
      </trkpt>
      <trkpt lat="50.586898" lon="6.499545">
        <ele>0.000000</ele>
        <time>2009-12-08T15:35:58Z</time>
      </trkpt>
      <trkpt lat="50.586857" lon="6.499379">
        <ele>0.000000</ele>
        <time>2009-12-08T15:35:58Z</time>
      </trkpt>
      <trkpt lat="50.586650" lon="6.499094">
        <ele>0.000000</ele>
        <time>2009-12-08T15:35:58Z</time>
      </trkpt>
      <trkpt lat="50.586963" lon="6.499228">
        <ele>0.000000</ele>
        <time>2009-12-08T15:35:58Z</time>
      </trkpt>
      <trkpt lat="50.587239" lon="6.499422">
        <ele>0.000000</ele>
        <time>2009-12-08T15:35:58Z</time>
      </trkpt>
      <trkpt lat="50.587341" lon="6.499534">
        <ele>0.000000</ele>
        <time>2009-12-08T15:35:58Z</time>
      </trkpt>
      <trkpt lat="50.587436" lon="6.499572">
        <ele>0.000000</ele>
        <time>2009-12-08T15:35:58Z</time>
      </trkpt>
      <trkpt lat="50.587532" lon="6.499481">
        <ele>0.000000</ele>
        <time>2009-12-08T15:35:58Z</time>
      </trkpt>
      <trkpt lat="50.587511" lon="6.499003">
        <ele>0.000000</ele>
        <time>2009-12-08T15:35:58Z</time>
      </trkpt>
      <trkpt lat="50.587538" lon="6.498751">
        <ele>0.000000</ele>
        <time>2009-12-08T15:35:58Z</time>
      </trkpt>
      <trkpt lat="50.587501" lon="6.498563">
        <ele>0.000000</ele>
        <time>2009-12-08T15:35:58Z</time>
      </trkpt>
      <trkpt lat="50.587429" lon="6.498434">
        <ele>0.000000</ele>
        <time>2009-12-08T15:35:58Z</time>
      </trkpt>
      <trkpt lat="50.587409" lon="6.498231">
        <ele>0.000000</ele>
        <time>2009-12-08T15:35:58Z</time>
      </trkpt>
      <trkpt lat="50.587436" lon="6.498021">
        <ele>0.000000</ele>
        <time>2009-12-08T15:35:58Z</time>
      </trkpt>
      <trkpt lat="50.587709" lon="6.497372">
        <ele>0.000000</ele>
        <time>2009-12-08T15:35:58Z</time>
      </trkpt>
      <trkpt lat="50.587743" lon="6.497292">
        <ele>0.000000</ele>
        <time>2009-12-08T15:35:58Z</time>
      </trkpt>
      <trkpt lat="50.587842" lon="6.497163">
        <ele>0.000000</ele>
        <time>2009-12-08T15:35:58Z</time>
      </trkpt>
      <trkpt lat="50.587950" lon="6.497077">
        <ele>0.000000</ele>
        <time>2009-12-08T15:35:58Z</time>
      </trkpt>
      <trkpt lat="50.588148" lon="6.496670">
        <ele>0.000000</ele>
        <time>2009-12-08T15:35:58Z</time>
      </trkpt>
      <trkpt lat="50.588148" lon="6.496246">
        <ele>0.000000</ele>
        <time>2009-12-08T15:35:58Z</time>
      </trkpt>
      <trkpt lat="50.587647" lon="6.494846">
        <ele>0.000000</ele>
        <time>2009-12-08T15:35:58Z</time>
      </trkpt>
      <trkpt lat="50.587930" lon="6.494551">
        <ele>0.000000</ele>
        <time>2009-12-08T15:35:58Z</time>
      </trkpt>
      <trkpt lat="50.588438" lon="6.493886">
        <ele>0.000000</ele>
        <time>2009-12-08T15:35:58Z</time>
      </trkpt>
      <trkpt lat="50.588853" lon="6.493392">
        <ele>0.000000</ele>
        <time>2009-12-08T15:35:58Z</time>
      </trkpt>
      <trkpt lat="50.589112" lon="6.493145">
        <ele>0.000000</ele>
        <time>2009-12-08T15:35:58Z</time>
      </trkpt>
      <trkpt lat="50.589470" lon="6.492968">
        <ele>0.000000</ele>
        <time>2009-12-08T15:35:58Z</time>
      </trkpt>
      <trkpt lat="50.589878" lon="6.492904">
        <ele>0.000000</ele>
        <time>2009-12-08T15:35:58Z</time>
      </trkpt>
      <trkpt lat="50.590450" lon="6.492861">
        <ele>0.000000</ele>
        <time>2009-12-08T15:35:58Z</time>
      </trkpt>
      <trkpt lat="50.590457" lon="6.493097">
        <ele>0.000000</ele>
        <time>2009-12-08T15:35:58Z</time>
      </trkpt>
      <trkpt lat="50.591029" lon="6.493403">
        <ele>0.000000</ele>
        <time>2009-12-08T15:35:58Z</time>
      </trkpt>
      <trkpt lat="50.591584" lon="6.493708">
        <ele>0.000000</ele>
        <time>2009-12-08T15:35:58Z</time>
      </trkpt>
      <trkpt lat="50.592099" lon="6.493993">
        <ele>0.000000</ele>
        <time>2009-12-08T15:35:58Z</time>
      </trkpt>
      <trkpt lat="50.592323" lon="6.494084">
        <ele>0.000000</ele>
        <time>2009-12-08T15:35:58Z</time>
      </trkpt>
      <trkpt lat="50.592514" lon="6.494036">
        <ele>0.000000</ele>
        <time>2009-12-08T15:35:58Z</time>
      </trkpt>
      <trkpt lat="50.592678" lon="6.493864">
        <ele>0.000000</ele>
        <time>2009-12-08T15:35:58Z</time>
      </trkpt>
      <trkpt lat="50.592957" lon="6.493446">
        <ele>0.000000</ele>
        <time>2009-12-08T15:35:58Z</time>
      </trkpt>
      <trkpt lat="50.593383" lon="6.493177">
        <ele>0.000000</ele>
        <time>2009-12-08T15:35:58Z</time>
      </trkpt>
      <trkpt lat="50.593760" lon="6.492383">
        <ele>0.000000</ele>
        <time>2009-12-08T15:35:58Z</time>
      </trkpt>
      <trkpt lat="50.594176" lon="6.491767">
        <ele>0.000000</ele>
        <time>2009-12-08T15:35:58Z</time>
      </trkpt>
      <trkpt lat="50.594643" lon="6.491514">
        <ele>0.000000</ele>
        <time>2009-12-08T15:35:58Z</time>
      </trkpt>
      <trkpt lat="50.594905" lon="6.491230">
        <ele>0.000000</ele>
        <time>2009-12-08T15:35:58Z</time>
      </trkpt>
      <trkpt lat="50.595525" lon="6.491021">
        <ele>0.000000</ele>
        <time>2009-12-08T15:35:58Z</time>
      </trkpt>
      <trkpt lat="50.596842" lon="6.490871">
        <ele>0.000000</ele>
        <time>2009-12-08T15:35:58Z</time>
      </trkpt>
      <trkpt lat="50.597551" lon="6.490780">
        <ele>0.000000</ele>
        <time>2009-12-08T15:35:58Z</time>
      </trkpt>
      <trkpt lat="50.598324" lon="6.490570">
        <ele>0.000000</ele>
        <time>2009-12-08T15:35:58Z</time>
      </trkpt>
      <trkpt lat="50.598780" lon="6.490302">
        <ele>0.000000</ele>
        <time>2009-12-08T15:35:58Z</time>
      </trkpt>
      <trkpt lat="50.599519" lon="6.489514">
        <ele>0.000000</ele>
        <time>2009-12-08T15:35:58Z</time>
      </trkpt>
      <trkpt lat="50.599723" lon="6.489320">
        <ele>0.000000</ele>
        <time>2009-12-08T15:35:58Z</time>
      </trkpt>
      <trkpt lat="50.600149" lon="6.488988">
        <ele>0.000000</ele>
        <time>2009-12-08T15:35:58Z</time>
      </trkpt>
      <trkpt lat="50.600649" lon="6.488897">
        <ele>0.000000</ele>
        <time>2009-12-08T15:35:58Z</time>
      </trkpt>
      <trkpt lat="50.601558" lon="6.487550">
        <ele>0.000000</ele>
        <time>2009-12-08T15:35:58Z</time>
      </trkpt>
      <trkpt lat="50.601425" lon="6.487411">
        <ele>0.000000</ele>
        <time>2009-12-08T15:35:58Z</time>
      </trkpt>
      <trkpt lat="50.602008" lon="6.486220">
        <ele>0.000000</ele>
        <time>2009-12-08T15:35:58Z</time>
      </trkpt>
      <trkpt lat="50.602457" lon="6.485319">
        <ele>0.000000</ele>
        <time>2009-12-08T15:35:58Z</time>
      </trkpt>
      <trkpt lat="50.603383" lon="6.483436">
        <ele>0.000000</ele>
        <time>2009-12-08T15:35:58Z</time>
      </trkpt>
      <trkpt lat="50.603567" lon="6.483039">
        <ele>0.000000</ele>
        <time>2009-12-08T15:35:58Z</time>
      </trkpt>
      <trkpt lat="50.604139" lon="6.481928">
        <ele>0.000000</ele>
        <time>2009-12-08T15:35:58Z</time>
      </trkpt>
      <trkpt lat="50.604411" lon="6.481376">
        <ele>0.000000</ele>
        <time>2009-12-08T15:35:58Z</time>
      </trkpt>
      <trkpt lat="50.604582" lon="6.481124">
        <ele>0.000000</ele>
        <time>2009-12-08T15:35:58Z</time>
      </trkpt>
      <trkpt lat="50.604738" lon="6.481011">
        <ele>0.000000</ele>
        <time>2009-12-08T15:35:58Z</time>
      </trkpt>
      <trkpt lat="50.604915" lon="6.480968">
        <ele>0.000000</ele>
        <time>2009-12-08T15:35:58Z</time>
      </trkpt>
      <trkpt lat="50.605293" lon="6.480952">
        <ele>0.000000</ele>
        <time>2009-12-08T15:35:58Z</time>
      </trkpt>
      <trkpt lat="50.605658" lon="6.480936">
        <ele>0.000000</ele>
        <time>2009-12-08T15:35:58Z</time>
      </trkpt>
      <trkpt lat="50.605923" lon="6.480973">
        <ele>0.000000</ele>
        <time>2009-12-08T15:35:58Z</time>
      </trkpt>
      <trkpt lat="50.606243" lon="6.481113">
        <ele>0.000000</ele>
        <time>2009-12-08T15:35:58Z</time>
      </trkpt>
      <trkpt lat="50.606468" lon="6.481263">
        <ele>0.000000</ele>
        <time>2009-12-08T15:35:58Z</time>
      </trkpt>
      <trkpt lat="50.606832" lon="6.481553">
        <ele>0.000000</ele>
        <time>2009-12-08T15:35:58Z</time>
      </trkpt>
      <trkpt lat="50.606999" lon="6.481655">
        <ele>0.000000</ele>
        <time>2009-12-08T15:35:58Z</time>
      </trkpt>
      <trkpt lat="50.607145" lon="6.481692">
        <ele>0.000000</ele>
        <time>2009-12-08T15:35:58Z</time>
      </trkpt>
      <trkpt lat="50.607360" lon="6.481639">
        <ele>0.000000</ele>
        <time>2009-12-08T15:35:58Z</time>
      </trkpt>
      <trkpt lat="50.607819" lon="6.481429">
        <ele>0.000000</ele>
        <time>2009-12-08T15:35:58Z</time>
      </trkpt>
      <trkpt lat="50.607938" lon="6.481354">
        <ele>0.000000</ele>
        <time>2009-12-08T15:35:58Z</time>
      </trkpt>
      <trkpt lat="50.608051" lon="6.481193">
        <ele>0.000000</ele>
        <time>2009-12-08T15:35:58Z</time>
      </trkpt>
      <trkpt lat="50.608095" lon="6.481107">
        <ele>0.000000</ele>
        <time>2009-12-08T15:35:58Z</time>
      </trkpt>
      <trkpt lat="50.608133" lon="6.481011">
        <ele>0.000000</ele>
        <time>2009-12-08T15:35:58Z</time>
      </trkpt>
      <trkpt lat="50.608190" lon="6.480711">
        <ele>0.000000</ele>
        <time>2009-12-08T15:35:58Z</time>
      </trkpt>
      <trkpt lat="50.608252" lon="6.480351">
        <ele>0.000000</ele>
        <time>2009-12-08T15:35:58Z</time>
      </trkpt>
      <trkpt lat="50.608303" lon="6.480206">
        <ele>0.000000</ele>
        <time>2009-12-08T15:35:58Z</time>
      </trkpt>
      <trkpt lat="50.608368" lon="6.480120">
        <ele>0.000000</ele>
        <time>2009-12-08T15:35:58Z</time>
      </trkpt>
      <trkpt lat="50.608422" lon="6.480099">
        <ele>0.000000</ele>
        <time>2009-12-08T15:35:58Z</time>
      </trkpt>
      <trkpt lat="50.608504" lon="6.480137">
        <ele>0.000000</ele>
        <time>2009-12-08T15:35:58Z</time>
      </trkpt>
      <trkpt lat="50.608653" lon="6.480314">
        <ele>0.000000</ele>
        <time>2009-12-08T15:35:58Z</time>
      </trkpt>
      <trkpt lat="50.608810" lon="6.480630">
        <ele>0.000000</ele>
        <time>2009-12-08T15:35:58Z</time>
      </trkpt>
      <trkpt lat="50.609263" lon="6.481365">
        <ele>0.000000</ele>
        <time>2009-12-08T15:35:58Z</time>
      </trkpt>
      <trkpt lat="50.609413" lon="6.481499">
        <ele>0.000000</ele>
        <time>2009-12-08T15:35:58Z</time>
      </trkpt>
      <trkpt lat="50.609556" lon="6.481574">
        <ele>0.000000</ele>
        <time>2009-12-08T15:35:58Z</time>
      </trkpt>
      <trkpt lat="50.609702" lon="6.481563">
        <ele>0.000000</ele>
        <time>2009-12-08T15:35:58Z</time>
      </trkpt>
      <trkpt lat="50.609824" lon="6.481499">
        <ele>0.000000</ele>
        <time>2009-12-08T15:35:58Z</time>
      </trkpt>
      <trkpt lat="50.610134" lon="6.481150">
        <ele>0.000000</ele>
        <time>2009-12-08T15:35:58Z</time>
      </trkpt>
      <trkpt lat="50.610400" lon="6.480914">
        <ele>0.000000</ele>
        <time>2009-12-08T15:35:58Z</time>
      </trkpt>
      <trkpt lat="50.610577" lon="6.480839">
        <ele>0.000000</ele>
        <time>2009-12-08T15:35:58Z</time>
      </trkpt>
      <trkpt lat="50.610696" lon="6.480812">
        <ele>0.000000</ele>
        <time>2009-12-08T15:35:58Z</time>
      </trkpt>
      <trkpt lat="50.610863" lon="6.480845">
        <ele>0.000000</ele>
        <time>2009-12-08T15:35:58Z</time>
      </trkpt>
      <trkpt lat="50.611183" lon="6.480968">
        <ele>0.000000</ele>
        <time>2009-12-08T15:35:58Z</time>
      </trkpt>
      <trkpt lat="50.611350" lon="6.481005">
        <ele>0.000000</ele>
        <time>2009-12-08T15:35:58Z</time>
      </trkpt>
      <trkpt lat="50.611567" lon="6.481011">
        <ele>0.000000</ele>
        <time>2009-12-08T15:35:58Z</time>
      </trkpt>
      <trkpt lat="50.611690" lon="6.480957">
        <ele>0.000000</ele>
        <time>2009-12-08T15:35:58Z</time>
      </trkpt>
      <trkpt lat="50.611758" lon="6.480882">
        <ele>0.000000</ele>
        <time>2009-12-08T15:35:58Z</time>
      </trkpt>
      <trkpt lat="50.611809" lon="6.480764">
        <ele>0.000000</ele>
        <time>2009-12-08T15:35:58Z</time>
      </trkpt>
      <trkpt lat="50.611826" lon="6.480662">
        <ele>0.000000</ele>
        <time>2009-12-08T15:35:58Z</time>
      </trkpt>
      <trkpt lat="50.611857" lon="6.480448">
        <ele>0.000000</ele>
        <time>2009-12-08T15:35:58Z</time>
      </trkpt>
      <trkpt lat="50.611921" lon="6.480281">
        <ele>0.000000</ele>
        <time>2009-12-08T15:35:58Z</time>
      </trkpt>
      <trkpt lat="50.611966" lon="6.480206">
        <ele>0.000000</ele>
        <time>2009-12-08T15:35:58Z</time>
      </trkpt>
      <trkpt lat="50.612041" lon="6.480217">
        <ele>0.000000</ele>
        <time>2009-12-08T15:35:58Z</time>
      </trkpt>
      <trkpt lat="50.612160" lon="6.480287">
        <ele>0.000000</ele>
        <time>2009-12-08T15:35:58Z</time>
      </trkpt>
      <trkpt lat="50.612439" lon="6.480389">
        <ele>0.000000</ele>
        <time>2009-12-08T15:35:58Z</time>
      </trkpt>
      <trkpt lat="50.612657" lon="6.480421">
        <ele>0.000000</ele>
        <time>2009-12-08T15:35:58Z</time>
      </trkpt>
      <trkpt lat="50.612970" lon="6.480415">
        <ele>0.000000</ele>
        <time>2009-12-08T15:35:58Z</time>
      </trkpt>
      <trkpt lat="50.613225" lon="6.480415">
        <ele>0.000000</ele>
        <time>2009-12-08T15:35:58Z</time>
      </trkpt>
      <trkpt lat="50.613457" lon="6.480335">
        <ele>0.000000</ele>
        <time>2009-12-08T15:35:58Z</time>
      </trkpt>
      <trkpt lat="50.613583" lon="6.480330">
        <ele>0.000000</ele>
        <time>2009-12-08T15:35:58Z</time>
      </trkpt>
      <trkpt lat="50.613705" lon="6.480372">
        <ele>0.000000</ele>
        <time>2009-12-08T15:35:58Z</time>
      </trkpt>
      <trkpt lat="50.613909" lon="6.480544">
        <ele>0.000000</ele>
        <time>2009-12-08T15:35:58Z</time>
      </trkpt>
      <trkpt lat="50.614110" lon="6.480721">
        <ele>0.000000</ele>
        <time>2009-12-08T15:35:58Z</time>
      </trkpt>
      <trkpt lat="50.614318" lon="6.480855">
        <ele>0.000000</ele>
        <time>2009-12-08T15:35:58Z</time>
      </trkpt>
      <trkpt lat="50.614583" lon="6.480957">
        <ele>0.000000</ele>
        <time>2009-12-08T15:35:58Z</time>
      </trkpt>
      <trkpt lat="50.614743" lon="6.480979">
        <ele>0.000000</ele>
        <time>2009-12-08T15:35:58Z</time>
      </trkpt>
      <trkpt lat="50.614961" lon="6.480914">
        <ele>0.000000</ele>
        <time>2009-12-08T15:35:58Z</time>
      </trkpt>
      <trkpt lat="50.615060" lon="6.480802">
        <ele>0.000000</ele>
        <time>2009-12-08T15:35:58Z</time>
      </trkpt>
      <trkpt lat="50.615216" lon="6.480598">
        <ele>0.000000</ele>
        <time>2009-12-08T15:35:58Z</time>
      </trkpt>
      <trkpt lat="50.615302" lon="6.480437">
        <ele>0.000000</ele>
        <time>2009-12-08T15:35:58Z</time>
      </trkpt>
      <trkpt lat="50.615370" lon="6.480222">
        <ele>0.000000</ele>
        <time>2009-12-08T15:35:58Z</time>
      </trkpt>
      <trkpt lat="50.615414" lon="6.479959">
        <ele>0.000000</ele>
        <time>2009-12-08T15:35:58Z</time>
      </trkpt>
      <trkpt lat="50.615441" lon="6.479836">
        <ele>0.000000</ele>
        <time>2009-12-08T15:35:58Z</time>
      </trkpt>
      <trkpt lat="50.615547" lon="6.479461">
        <ele>0.000000</ele>
        <time>2009-12-08T15:35:58Z</time>
      </trkpt>
      <trkpt lat="50.615622" lon="6.479251">
        <ele>0.000000</ele>
        <time>2009-12-08T15:35:58Z</time>
      </trkpt>
      <trkpt lat="50.615686" lon="6.479450">
        <ele>0.000000</ele>
        <time>2009-12-08T15:35:58Z</time>
      </trkpt>
      <trkpt lat="50.615805" lon="6.479343">
        <ele>0.000000</ele>
        <time>2009-12-08T15:35:58Z</time>
      </trkpt>
      <trkpt lat="50.616183" lon="6.479858">
        <ele>0.000000</ele>
        <time>2009-12-08T15:35:58Z</time>
      </trkpt>
      <trkpt lat="50.616319" lon="6.479927">
        <ele>0.000000</ele>
        <time>2009-12-08T15:35:58Z</time>
      </trkpt>
      <trkpt lat="50.616353" lon="6.479600">
        <ele>0.000000</ele>
        <time>2009-12-08T15:35:58Z</time>
      </trkpt>
      <trkpt lat="50.616370" lon="6.479584">
        <ele>0.000000</ele>
        <time>2009-12-08T15:35:58Z</time>
      </trkpt>
      <trkpt lat="50.616629" lon="6.479568">
        <ele>0.000000</ele>
        <time>2009-12-08T15:35:58Z</time>
      </trkpt>
      <trkpt lat="50.616711" lon="6.479648">
        <ele>0.000000</ele>
        <time>2009-12-08T15:35:58Z</time>
      </trkpt>
      <trkpt lat="50.616864" lon="6.479675">
        <ele>0.000000</ele>
        <time>2009-12-08T15:35:58Z</time>
      </trkpt>
      <trkpt lat="50.617214" lon="6.479793">
        <ele>0.000000</ele>
        <time>2009-12-08T15:35:58Z</time>
      </trkpt>
      <trkpt lat="50.617660" lon="6.479970">
        <ele>0.000000</ele>
        <time>2009-12-08T15:35:58Z</time>
      </trkpt>
      <trkpt lat="50.617854" lon="6.479976">
        <ele>0.000000</ele>
        <time>2009-12-08T15:35:58Z</time>
      </trkpt>
      <trkpt lat="50.618014" lon="6.479949">
        <ele>0.000000</ele>
        <time>2009-12-08T15:35:58Z</time>
      </trkpt>
      <trkpt lat="50.618144" lon="6.479981">
        <ele>0.000000</ele>
        <time>2009-12-08T15:35:58Z</time>
      </trkpt>
      <trkpt lat="50.618566" lon="6.480952">
        <ele>0.000000</ele>
        <time>2009-12-08T15:35:58Z</time>
      </trkpt>
      <trkpt lat="50.619151" lon="6.482298">
        <ele>0.000000</ele>
        <time>2009-12-08T15:35:58Z</time>
      </trkpt>
      <trkpt lat="50.619488" lon="6.483065">
        <ele>0.000000</ele>
        <time>2009-12-08T15:35:58Z</time>
      </trkpt>
      <trkpt lat="50.619689" lon="6.483446">
        <ele>0.000000</ele>
        <time>2009-12-08T15:35:58Z</time>
      </trkpt>
      <trkpt lat="50.619907" lon="6.483731">
        <ele>0.000000</ele>
        <time>2009-12-08T15:35:58Z</time>
      </trkpt>
      <trkpt lat="50.620206" lon="6.483876">
        <ele>0.000000</ele>
        <time>2009-12-08T15:35:58Z</time>
      </trkpt>
      <trkpt lat="50.620496" lon="6.483924">
        <ele>0.000000</ele>
        <time>2009-12-08T15:35:58Z</time>
      </trkpt>
      <trkpt lat="50.620696" lon="6.484010">
        <ele>0.000000</ele>
        <time>2009-12-08T15:35:58Z</time>
      </trkpt>
      <trkpt lat="50.620989" lon="6.484256">
        <ele>0.000000</ele>
        <time>2009-12-08T15:35:58Z</time>
      </trkpt>
      <trkpt lat="50.621129" lon="6.484428">
        <ele>0.000000</ele>
        <time>2009-12-08T15:35:58Z</time>
      </trkpt>
      <trkpt lat="50.621377" lon="6.484879">
        <ele>0.000000</ele>
        <time>2009-12-08T15:35:58Z</time>
      </trkpt>
      <trkpt lat="50.621612" lon="6.485184">
        <ele>0.000000</ele>
        <time>2009-12-08T15:35:58Z</time>
      </trkpt>
      <trkpt lat="50.622000" lon="6.485581">
        <ele>0.000000</ele>
        <time>2009-12-08T15:35:58Z</time>
      </trkpt>
      <trkpt lat="50.622225" lon="6.485951">
        <ele>0.000000</ele>
        <time>2009-12-08T15:35:58Z</time>
      </trkpt>
      <trkpt lat="50.622466" lon="6.486086">
        <ele>0.000000</ele>
        <time>2009-12-08T15:35:58Z</time>
      </trkpt>
      <trkpt lat="50.623058" lon="6.486145">
        <ele>0.000000</ele>
        <time>2009-12-08T15:35:58Z</time>
      </trkpt>
      <trkpt lat="50.623504" lon="6.486461">
        <ele>0.000000</ele>
        <time>2009-12-08T15:35:58Z</time>
      </trkpt>
      <trkpt lat="50.623943" lon="6.486837">
        <ele>0.000000</ele>
        <time>2009-12-08T15:35:58Z</time>
      </trkpt>
      <trkpt lat="50.624498" lon="6.487046">
        <ele>0.000000</ele>
        <time>2009-12-08T15:35:58Z</time>
      </trkpt>
      <trkpt lat="50.625032" lon="6.487255">
        <ele>0.000000</ele>
        <time>2009-12-08T15:35:58Z</time>
      </trkpt>
      <trkpt lat="50.625522" lon="6.487411">
        <ele>0.000000</ele>
        <time>2009-12-08T15:35:58Z</time>
      </trkpt>
      <trkpt lat="50.626046" lon="6.487556">
        <ele>0.000000</ele>
        <time>2009-12-08T15:35:58Z</time>
      </trkpt>
      <trkpt lat="50.626142" lon="6.487518">
        <ele>0.000000</ele>
        <time>2009-12-08T15:35:58Z</time>
      </trkpt>
      <trkpt lat="50.626815" lon="6.487260">
        <ele>0.000000</ele>
        <time>2009-12-08T15:35:58Z</time>
      </trkpt>
      <trkpt lat="50.627200" lon="6.487132">
        <ele>0.000000</ele>
        <time>2009-12-08T15:35:58Z</time>
      </trkpt>
      <trkpt lat="50.627632" lon="6.487298">
        <ele>0.000000</ele>
        <time>2009-12-08T15:35:58Z</time>
      </trkpt>
      <trkpt lat="50.627755" lon="6.487293">
        <ele>0.000000</ele>
        <time>2009-12-08T15:35:58Z</time>
      </trkpt>
      <trkpt lat="50.628068" lon="6.487336">
        <ele>0.000000</ele>
        <time>2009-12-08T15:35:58Z</time>
      </trkpt>
      <trkpt lat="50.628187" lon="6.487207">
        <ele>0.000000</ele>
        <time>2009-12-08T15:35:58Z</time>
      </trkpt>
      <trkpt lat="50.628309" lon="6.487159">
        <ele>0.000000</ele>
        <time>2009-12-08T15:35:58Z</time>
      </trkpt>
      <trkpt lat="50.628476" lon="6.487110">
        <ele>0.000000</ele>
        <time>2009-12-08T15:35:58Z</time>
      </trkpt>
      <trkpt lat="50.628694" lon="6.486810">
        <ele>0.000000</ele>
        <time>2009-12-08T15:35:58Z</time>
      </trkpt>
      <trkpt lat="50.628891" lon="6.486681">
        <ele>0.000000</ele>
        <time>2009-12-08T15:35:58Z</time>
      </trkpt>
      <trkpt lat="50.628983" lon="6.486601">
        <ele>0.000000</ele>
        <time>2009-12-08T15:35:58Z</time>
      </trkpt>
      <trkpt lat="50.629167" lon="6.486584">
        <ele>0.000000</ele>
        <time>2009-12-08T15:35:58Z</time>
      </trkpt>
      <trkpt lat="50.629374" lon="6.486429">
        <ele>0.000000</ele>
        <time>2009-12-08T15:35:58Z</time>
      </trkpt>
      <trkpt lat="50.629460" lon="6.486418">
        <ele>0.000000</ele>
        <time>2009-12-08T15:35:58Z</time>
      </trkpt>
      <trkpt lat="50.629762" lon="6.486434">
        <ele>0.000000</ele>
        <time>2009-12-08T15:35:58Z</time>
      </trkpt>
      <trkpt lat="50.629885" lon="6.486418">
        <ele>0.000000</ele>
        <time>2009-12-08T15:35:58Z</time>
      </trkpt>
      <trkpt lat="50.630001" lon="6.486391">
        <ele>0.000000</ele>
        <time>2009-12-08T15:35:58Z</time>
      </trkpt>
      <trkpt lat="50.630388" lon="6.486161">
        <ele>0.000000</ele>
        <time>2009-12-08T15:35:58Z</time>
      </trkpt>
      <trkpt lat="50.630736" lon="6.486182">
        <ele>0.000000</ele>
        <time>2009-12-08T15:35:58Z</time>
      </trkpt>
      <trkpt lat="50.631008" lon="6.486166">
        <ele>0.000000</ele>
        <time>2009-12-08T15:35:58Z</time>
      </trkpt>
      <trkpt lat="50.631079" lon="6.486107">
        <ele>0.000000</ele>
        <time>2009-12-08T15:35:58Z</time>
      </trkpt>
      <trkpt lat="50.631198" lon="6.485898">
        <ele>0.000000</ele>
        <time>2009-12-08T15:35:58Z</time>
      </trkpt>
      <trkpt lat="50.631413" lon="6.485206">
        <ele>0.000000</ele>
        <time>2009-12-08T15:35:58Z</time>
      </trkpt>
      <trkpt lat="50.631511" lon="6.485099">
        <ele>0.000000</ele>
        <time>2009-12-08T15:35:58Z</time>
      </trkpt>
      <trkpt lat="50.631702" lon="6.484648">
        <ele>0.000000</ele>
        <time>2009-12-08T15:35:58Z</time>
      </trkpt>
      <trkpt lat="50.631926" lon="6.483623">
        <ele>0.000000</ele>
        <time>2009-12-08T15:35:58Z</time>
      </trkpt>
      <trkpt lat="50.631971" lon="6.483543">
        <ele>0.000000</ele>
        <time>2009-12-08T15:35:58Z</time>
      </trkpt>
      <trkpt lat="50.632178" lon="6.483350">
        <ele>0.000000</ele>
        <time>2009-12-08T15:35:58Z</time>
      </trkpt>
      <trkpt lat="50.632325" lon="6.483221">
        <ele>0.000000</ele>
        <time>2009-12-08T15:35:58Z</time>
      </trkpt>
      <trkpt lat="50.632658" lon="6.482593">
        <ele>0.000000</ele>
        <time>2009-12-08T15:35:58Z</time>
      </trkpt>
      <trkpt lat="50.632644" lon="6.482443">
        <ele>0.000000</ele>
        <time>2009-12-08T15:35:58Z</time>
      </trkpt>
      <trkpt lat="50.632651" lon="6.482314">
        <ele>0.000000</ele>
        <time>2009-12-08T15:35:58Z</time>
      </trkpt>
      <trkpt lat="50.632696" lon="6.482121">
        <ele>0.000000</ele>
        <time>2009-12-08T15:35:58Z</time>
      </trkpt>
      <trkpt lat="50.632818" lon="6.481789">
        <ele>0.000000</ele>
        <time>2009-12-08T15:35:58Z</time>
      </trkpt>
      <trkpt lat="50.632937" lon="6.481445">
        <ele>0.000000</ele>
        <time>2009-12-08T15:35:58Z</time>
      </trkpt>
      <trkpt lat="50.633094" lon="6.481027">
        <ele>0.000000</ele>
        <time>2009-12-08T15:35:58Z</time>
      </trkpt>
      <trkpt lat="50.633199" lon="6.480748">
        <ele>0.000000</ele>
        <time>2009-12-08T15:35:58Z</time>
      </trkpt>
      <trkpt lat="50.633359" lon="6.480818">
        <ele>0.000000</ele>
        <time>2009-12-08T15:35:58Z</time>
      </trkpt>
    </trkseg>
  </trk>

</gpx>
